Mackinac Island, MI

2:49 PM EDT on September 26, 2017 (GMT -0400)
Mackinac Island

Weather History for KMCD - November, 2013

Change the Weather History Date:

Wednesday, November 6, 2013

  Actual Average Record
Temperature  
Mean Temperature 43 °F -  
Max Temperature 51 °F 43 °F 71 °F (2008)
Min Temperature 35 °F 33 °F 17 °F (1991)
Degree Days  
Heating Degree Days 22    
Moisture  
Dew Point 43 °F    
Average Humidity 95    
Maximum Humidity 99    
Minimum Humidity 83    
Precipitation  
Precipitation 0.56 in - - ()
Sea Level Pressure  
Sea Level Pressure 29.79 in    
Wind  
Wind Speed 10 mph (WSW)    
Max Wind Speed 17 mph    
Max Gust Speed 28 mph    
Visibility 8 miles    
Events Rain    
Averages and records for this station are not official NWS values.
T = Trace of Precipitation, MM = Missing Value Source: NWS Daily Summary

Daily Weather History Graph

Daily Weather History Graph

Search for Another Location

Airport or City:

Trip Planner

Search our weather history database for the weather conditions in past years. The results will help you decide how hot, cold, wet, or windy it might be!

Date:

Astronomy

Nov. 06, 2013 Rise Set
Actual Time 7:26 AM EST 5:17 PM EST
Civil Twilight 6:54 AM EST 5:49 PM EST
Nautical Twilight 6:19 AM EST 6:24 PM EST
Astronomical Twilight 5:44 AM EST 6:59 PM EST
Moon 10:44 AM EST (11/6) 8:16 PM EST (11/6)
Length of Visible Light 10h 54m
Length of Day
9h 51m
Waxing Crescent, 13% of the Moon is Illuminated
Nov 6
Waxing Crescent
Nov 10
First Quarter
Nov 17
Full
Nov 25
Last Quarter
Dec 2
New

Hourly Weather History & Observations

Time (EST) Temp. Windchill Dew Point Humidity Pressure Visibility Wind Dir Wind Speed Gust Speed Precip Events Conditions
12:16 AM 49.1 °F - 47.3 °F 93% 29.99 in 5.0 mi SSE 8.1 mph - 0.02 in Rain Light Rain
12:35 AM 49.1 °F - 47.5 °F 94% 29.98 in 7.0 mi SSE 9.2 mph 20.7 mph 0.04 in Rain Light Rain
12:56 AM 48.9 °F - 47.7 °F 95% 29.97 in 7.0 mi SSE 8.1 mph - 0.05 in Rain Light Rain
1:15 AM 49.3 °F - 48.2 °F 96% 29.95 in 7.0 mi SSE 8.1 mph - N/A   Drizzle
1:35 AM 49.1 °F - 48.2 °F 97% 29.94 in 7.0 mi SSE 9.2 mph - N/A Rain Rain
1:56 AM 49.3 °F - 48.2 °F 96% 29.93 in 7.0 mi SSE 8.1 mph - 0.01 in Rain Light Rain
2:15 AM 49.1 °F - 48.2 °F 97% 29.92 in 7.0 mi SSE 8.1 mph - 0.01 in Rain Light Rain
2:35 AM 49.3 °F - 48.2 °F 96% 29.91 in 5.0 mi SSE 9.2 mph - 0.04 in Rain Light Rain
2:56 AM 49.1 °F - 47.8 °F 95% 29.90 in 7.0 mi SSE 9.2 mph - 0.06 in Rain Light Rain
3:16 AM 49.1 °F - 47.8 °F 95% 29.88 in 7.0 mi SSE 6.9 mph - 0.01 in Rain Light Rain
3:35 AM 49.1 °F - 47.7 °F 95% 29.87 in 7.0 mi SSE 5.8 mph - 0.03 in Rain Rain
3:56 AM 48.7 °F - 47.5 °F 95% 29.87 in 3.0 mi SSE 5.8 mph - 0.09 in Rain Light Rain
4:15 AM 48.4 °F - 47.5 °F 97% 29.85 in 4.0 mi SSE 4.6 mph - 0.04 in Rain Rain
4:36 AM 48.2 °F - 47.7 °F 98% 29.84 in 4.0 mi SSE 4.6 mph - 0.07 in Rain Light Rain
4:56 AM 48.4 °F - 47.8 °F 98% 29.83 in 5.0 mi SSE 5.8 mph - 0.07 in Rain Light Rain
5:15 AM 48.6 °F - 48.2 °F 99% 29.82 in 5.0 mi SSE 5.8 mph - 0.01 in Rain Light Rain
5:36 AM 48.7 °F - 48.2 °F 98% 29.80 in 5.0 mi SSE 9.2 mph - 0.02 in Rain Light Rain
5:56 AM 48.7 °F - 48.2 °F 98% 29.80 in 5.0 mi South 8.1 mph - 0.03 in Rain Light Rain
6:15 AM 48.7 °F - 48.2 °F 98% 29.78 in 4.0 mi South 8.1 mph - N/A Rain Light Rain
6:36 AM 48.7 °F - 48.4 °F 99% 29.77 in 4.0 mi South 6.9 mph - 0.01 in Rain Light Rain
6:55 AM 48.7 °F - 48.4 °F 99% 29.76 in 4.0 mi South 8.1 mph - 0.02 in   Heavy Drizzle
7:15 AM 49.1 °F - 48.7 °F 99% 29.75 in 4.0 mi South 8.1 mph - 0.01 in Rain Light Rain
7:36 AM 49.3 °F - 48.9 °F 99% 29.74 in 5.0 mi South 9.2 mph - 0.02 in Rain Light Rain
7:55 AM 49.3 °F - 49.1 °F 99% 29.73 in 2.5 mi South 9.2 mph - 0.03 in Rain Light Rain
8:15 AM 49.3 °F - 49.1 °F 99% 29.72 in 4.0 mi South 8.1 mph - N/A   Drizzle
8:36 AM 49.5 °F - 49.1 °F 99% 29.72 in 3.0 mi South 10.4 mph - 0.01 in Rain Light Rain
8:55 AM 49.6 °F - 49.3 °F 99% 29.70 in 4.0 mi South 8.1 mph - 0.03 in Rain Light Rain
9:15 AM 50.0 °F - 49.5 °F 98% 29.70 in 5.0 mi South 6.9 mph - 0.01 in Rain Light Rain
9:36 AM 50.0 °F - 49.6 °F 99% 29.68 in 7.0 mi South 6.9 mph - 0.02 in Rain Light Rain
9:55 AM 50.4 °F - 50.0 °F 99% 29.69 in 7.0 mi South 8.1 mph - 0.03 in Rain Light Rain
10:15 AM 50.9 °F - 50.4 °F 98% 29.67 in 5.0 mi South 8.1 mph - 0.03 in Rain Rain
10:36 AM 50.9 °F - 50.5 °F 99% 29.66 in 10.0 mi South 9.2 mph - 0.03 in   Light Drizzle
10:55 AM 51.1 °F - 50.9 °F 99% 29.65 in 10.0 mi South 10.4 mph - 0.03 in Rain Light Rain
11:16 AM 51.3 °F - 50.9 °F 99% 29.64 in 10.0 mi South 8.1 mph - 0.01 in Rain Light Rain
11:35 AM 51.6 °F - 51.1 °F 98% 29.63 in 10.0 mi South 9.2 mph - 0.01 in Rain Light Rain
11:55 AM 51.1 °F - 50.4 °F 97% 29.63 in 10.0 mi West 9.2 mph - 0.02 in Rain Light Rain
12:16 PM 44.8 °F 38.7 °F 43.9 °F 97% 29.64 in 4.0 mi NNW 12.7 mph 20.7 mph 0.01 in Rain Light Rain
12:35 PM 43.7 °F 38.6 °F 43.2 °F 98% 29.64 in 5.0 mi NNW 9.2 mph 18.4 mph 0.03 in Rain Light Rain
12:55 PM 42.8 °F 37.5 °F 42.4 °F 99% 29.62 in 10.0 mi NNW 9.2 mph 16.1 mph 0.04 in Rain Light Rain
1:16 PM 43.2 °F 37.9 °F 42.8 °F 99% 29.62 in 10.0 mi NNW 9.2 mph - N/A Rain Light Rain
1:35 PM 42.8 °F 37.0 °F 42.3 °F 98% 29.61 in 10.0 mi NW 10.4 mph - N/A Rain Light Rain
1:55 PM 41.9 °F 34.3 °F 41.4 °F 98% 29.63 in 3.0 mi NW 15.0 mph 20.7 mph 0.01 in Rain Light Rain
2:16 PM 41.5 °F 35.0 °F 41.0 °F 98% 29.63 in 3.0 mi NW 11.5 mph 18.4 mph 0.03 in Rain Light Rain
2:35 PM 41.2 °F 34.5 °F 40.6 °F 98% 29.63 in 10.0 mi NW 11.5 mph 16.1 mph 0.04 in Rain Light Rain
2:55 PM 41.0 °F 35.2 °F 40.3 °F 97% 29.65 in 10.0 mi NW 9.2 mph 16.1 mph 0.04 in   Light Drizzle
3:16 PM 40.5 °F 32.8 °F 39.4 °F 96% 29.66 in 10.0 mi NW 13.8 mph 23.0 mph N/A   Overcast
3:35 PM 40.1 °F 33.2 °F 39.0 °F 96% 29.68 in 10.0 mi NW 11.5 mph 24.2 mph N/A Rain Light Rain
3:55 PM 39.4 °F 31.4 °F 38.3 °F 96% 29.69 in 10.0 mi NW 13.8 mph 24.2 mph N/A Rain Light Rain
4:15 PM 39.2 °F 30.8 °F 37.9 °F 95% 29.70 in 10.0 mi NW 15.0 mph 25.3 mph N/A Rain Light Rain
4:35 PM 39.2 °F 31.2 °F 37.9 °F 95% 29.71 in 10.0 mi NW 13.8 mph 23.0 mph N/A   Overcast
4:56 PM 39.4 °F 30.7 °F 38.1 °F 95% 29.73 in 10.0 mi NW 16.1 mph 26.5 mph N/A   Overcast
5:15 PM 39.4 °F 31.1 °F 37.9 °F 95% 29.75 in 10.0 mi NW 15.0 mph 24.2 mph N/A   Overcast
5:35 PM 39.4 °F 31.8 °F 37.6 °F 93% 29.76 in 10.0 mi NW 12.7 mph 21.9 mph N/A   Overcast
5:56 PM 39.4 °F 30.7 °F 37.6 °F 93% 29.78 in 10.0 mi NW 16.1 mph 26.5 mph N/A   Overcast
6:15 PM 39.4 °F 30.7 °F 37.8 °F 94% 29.80 in 5.0 mi WNW 16.1 mph 24.2 mph N/A Rain Light Rain
6:35 PM 39.2 °F 31.2 °F 37.2 °F 93% 29.81 in 10.0 mi NW 13.8 mph 25.3 mph N/A   Overcast
6:56 PM 38.5 °F 30.3 °F 36.0 °F 91% 29.82 in 10.0 mi WNW 13.8 mph 25.3 mph N/A   Overcast
7:15 PM 38.3 °F 29.0 °F 35.6 °F 90% 29.83 in 10.0 mi WNW 17.3 mph 25.3 mph N/A   Overcast
7:35 PM 38.3 °F 29.3 °F 35.6 °F 90% 29.84 in 10.0 mi WNW 16.1 mph 27.6 mph N/A   Overcast
7:56 PM 38.1 °F 28.8 °F 34.9 °F 88% 29.85 in 10.0 mi WNW 17.3 mph 24.2 mph N/A   Overcast
8:15 PM 37.8 °F 29.0 °F 34.3 °F 87% 29.86 in 10.0 mi NW 15.0 mph 23.0 mph N/A   Overcast
8:35 PM 37.4 °F 28.5 °F 34.0 °F 87% 29.87 in 10.0 mi WNW 15.0 mph 23.0 mph N/A   Overcast
8:56 PM 37.0 °F 27.7 °F 34.0 °F 89% 29.88 in 10.0 mi WNW 16.1 mph 21.9 mph N/A   Overcast
9:15 PM 36.3 °F 28.0 °F 33.4 °F 89% 29.89 in 10.0 mi WNW 12.7 mph 25.3 mph N/A   Overcast
9:35 PM 36.0 °F 26.7 °F 33.1 °F 89% 29.90 in 10.0 mi WNW 15.0 mph 21.9 mph N/A   Mostly Cloudy
9:56 PM 35.6 °F 28.0 °F 32.9 °F 90% 29.90 in 10.0 mi WNW 10.4 mph 17.3 mph N/A   Scattered Clouds
10:15 PM 36.1 °F 28.2 °F 32.4 °F 86% 29.91 in 10.0 mi WNW 11.5 mph 21.9 mph N/A   Mostly Cloudy
10:35 PM 36.5 °F 27.8 °F 32.0 °F 84% 29.92 in 10.0 mi WNW 13.8 mph 21.9 mph N/A   Overcast
10:56 PM 36.5 °F 27.8 °F 32.0 °F 84% 29.92 in 10.0 mi WNW 13.8 mph 20.7 mph N/A   Overcast
11:15 PM 36.5 °F 28.2 °F 32.0 °F 84% 29.92 in 10.0 mi West 12.7 mph 23.0 mph N/A   Overcast
11:35 PM 36.9 °F 27.5 °F 32.0 °F 83% 29.92 in 10.0 mi West 16.1 mph 20.7 mph N/A   Overcast
11:56 PM 36.9 °F 27.8 °F 32.0 °F 83% 29.93 in 10.0 mi WNW 15.0 mph 20.7 mph N/A   Overcast